owner,sensor,date,latitude,longitude,mass_concentration_of_chlorophyll_in_sea_water,qcFlag 
LUMCON,ioos:station:LUMCON:101:1,2019-06-01T00:00:00Z,29.2533,-90.6633,12.82,11111222 
LUMCON,ioos:station:LUMCON:101:1,2019-06-01T00:15:00Z,29.2533,-90.6633,12.69,11111222 
LUMCON,ioos:station:LUMCON:101:1,2019-06-01T00:30:00Z,29.2533,-90.6633,12.83,11111222 
LUMCON,ioos:station:LUMCON:101:1,2019-06-01T00:45:00Z,29.2533,-90.6633,12.75,11111222 
LUMCON,ioos:station:LUMCON:101:1,2019-06-01T01:00:00Z,29.2533,-90.6633,12.31,11111222 
LUMCON,ioos:station:LUMCON:101:1,2019-06-01T01:15:00Z,29.2533,-90.6633,12.45,11111222 
LUMCON,ioos:station:LUMCON:101:1,2019-06-01T01:30:00Z,29.2533,-90.6633,12.29,11111222 
LUMCON,ioos:station:LUMCON:101:1,2019-06-01T01:45:00Z,29.2533,-90.6633,11.96,11111222 
LUMCON,ioos:station:LUMCON:101:1,2019-06-01T02:00:00Z,29.2533,-90.6633,12.18,11111222 
LUMCON,ioos:station:LUMCON:101:1,2019-06-01T02:15:00Z,29.2533,-90.6633,12.2,11111222 
LUMCON,ioos:station:LUMCON:101:1,2019-06-01T02:30:00Z,29.2533,-90.6633,12.19,11111222 
LUMCON,ioos:station:LUMCON:101:1,2019-06-01T02:45:00Z,29.2533,-90.6633,11.93,11111222 
LUMCON,ioos:station:LUMCON:101:1,2019-06-01T03:00:00Z,29.2533,-90.6633,11.7,11111222 
LUMCON,ioos:station:LUMCON:101:1,2019-06-01T03:15:00Z,29.2533,-90.6633,12.03,11111222 
LUMCON,ioos:station:LUMCON:101:1,2019-06-01T03:30:00Z,29.2533,-90.6633,12.2,11111222 
LUMCON,ioos:station:LUMCON:101:1,2019-06-01T03:45:00Z,29.2533,-90.6633,11.29,11111222 
LUMCON,ioos:station:LUMCON:101:1,2019-06-01T04:00:00Z,29.2533,-90.6633,12.46,11111222 
LUMCON,ioos:station:LUMCON:101:1,2019-06-01T04:15:00Z,29.2533,-90.6633,13.39,11111222 
LUMCON,ioos:station:LUMCON:101:1,2019-06-01T04:30:00Z,29.2533,-90.6633,14.48,11111222 
LUMCON,ioos:station:LUMCON:101:1,2019-06-01T04:45:00Z,29.2533,-90.6633,13.97,11111222 
LUMCON,ioos:station:LUMCON:101:1,2019-06-01T05:00:00Z,29.2533,-90.6633,14.92,11111222 
LUMCON,ioos:station:LUMCON:101:1,2019-06-01T05:15:00Z,29.2533,-90.6633,15.42,11111222 
LUMCON,ioos:station:LUMCON:101:1,2019-06-01T05:30:00Z,29.2533,-90.6633,15.84,11111222 
LUMCON,ioos:station:LUMCON:101:1,2019-06-01T05:45:00Z,29.2533,-90.6633,15.43,11111222 
LUMCON,ioos:station:LUMCON:101:1,2019-06-01T06:00:00Z,29.2533,-90.6633,16.14,11111222 
LUMCON,ioos:station:LUMCON:101:1,2019-06-01T06:15:00Z,29.2533,-90.6633,15.11,11111222 
LUMCON,ioos:station:LUMCON:101:1,2019-06-01T06:30:00Z,29.2533,-90.6633,15.79,11111222 
LUMCON,ioos:station:LUMCON:101:1,2019-06-01T06:45:00Z,29.2533,-90.6633,15.5,11111222 
LUMCON,ioos:station:LUMCON:101:1,2019-06-01T07:00:00Z,29.2533,-90.6633,16.01,11111222 
LUMCON,ioos:station:LUMCON:101:1,2019-06-01T07:15:00Z,29.2533,-90.6633,15.36,11111222 
LUMCON,ioos:station:LUMCON:101:1,2019-06-01T07:30:00Z,29.2533,-90.6633,15.73,11111222 
LUMCON,ioos:station:LUMCON:101:1,2019-06-01T07:45:00Z,29.2533,-90.6633,15.32,11111222 
LUMCON,ioos:station:LUMCON:101:1,2019-06-01T08:00:00Z,29.2533,-90.6633,15.14,11111222 
LUMCON,ioos:station:LUMCON:101:1,2019-06-01T08:15:00Z,29.2533,-90.6633,15.27,11111222 
LUMCON,ioos:station:LUMCON:101:1,2019-06-01T08:30:00Z,29.2533,-90.6633,15.57,11111222 
LUMCON,ioos:station:LUMCON:101:1,2019-06-01T08:45:00Z,29.2533,-90.6633,15.22,11111222 
LUMCON,ioos:station:LUMCON:101:1,2019-06-01T09:00:00Z,29.2533,-90.6633,15.3,11111222 
LUMCON,ioos:station:LUMCON:101:1,2019-06-01T09:15:00Z,29.2533,-90.6633,15.25,11111222 
LUMCON,ioos:station:LUMCON:101:1,2019-06-01T09:30:00Z,29.2533,-90.6633,14.98,11111222 
LUMCON,ioos:station:LUMCON:101:1,2019-06-01T09:45:00Z,29.2533,-90.6633,14.99,11111222 
LUMCON,ioos:station:LUMCON:101:1,2019-06-01T10:00:00Z,29.2533,-90.6633,14.92,11111222 
LUMCON,ioos:station:LUMCON:101:1,2019-06-01T10:15:00Z,29.2533,-90.6633,14.82,11111222 
LUMCON,ioos:station:LUMCON:101:1,2019-06-01T10:30:00Z,29.2533,-90.6633,14.57,11111222 
LUMCON,ioos:station:LUMCON:101:1,2019-06-01T10:45:00Z,29.2533,-90.6633,14.73,11111222 
LUMCON,ioos:station:LUMCON:101:1,2019-06-01T11:00:00Z,29.2533,-90.6633,14.5,11111222 
LUMCON,ioos:station:LUMCON:101:1,2019-06-01T11:15:00Z,29.2533,-90.6633,14.68,11111222 
LUMCON,ioos:station:LUMCON:101:1,2019-06-01T11:30:00Z,29.2533,-90.6633,15.2,11111222 
LUMCON,ioos:station:LUMCON:101:1,2019-06-01T11:45:00Z,29.2533,-90.6633,15.56,11111222 
LUMCON,ioos:station:LUMCON:101:1,2019-06-01T12:00:00Z,29.2533,-90.6633,14.89,11111222 
LUMCON,ioos:station:LUMCON:101:1,2019-06-01T12:15:00Z,29.2533,-90.6633,14.55,11111222 
LUMCON,ioos:station:LUMCON:101:1,2019-06-01T12:30:00Z,29.2533,-90.6633,14.75,11111222 
LUMCON,ioos:station:LUMCON:101:1,2019-06-01T12:45:00Z,29.2533,-90.6633,15.0,11111222 
LUMCON,ioos:station:LUMCON:101:1,2019-06-01T13:00:00Z,29.2533,-90.6633,14.64,11111222 
LUMCON,ioos:station:LUMCON:101:1,2019-06-01T13:15:00Z,29.2533,-90.6633,14.06,11111222 
LUMCON,ioos:station:LUMCON:101:1,2019-06-01T13:30:00Z,29.2533,-90.6633,15.3,11111222 
LUMCON,ioos:station:LUMCON:101:1,2019-06-01T13:45:00Z,29.2533,-90.6633,13.97,11111222 
LUMCON,ioos:station:LUMCON:101:1,2019-06-01T14:00:00Z,29.2533,-90.6633,15.63,11111222 
LUMCON,ioos:station:LUMCON:101:1,2019-06-01T14:15:00Z,29.2533,-90.6633,15.56,11111222 
LUMCON,ioos:station:LUMCON:101:1,2019-06-01T14:30:00Z,29.2533,-90.6633,13.89,11111222 
LUMCON,ioos:station:LUMCON:101:1,2019-06-01T14:45:00Z,29.2533,-90.6633,13.79,11111222 
LUMCON,ioos:station:LUMCON:101:1,2019-06-01T15:00:00Z,29.2533,-90.6633,14.62,11111222 
LUMCON,ioos:station:LUMCON:101:1,2019-06-01T15:15:00Z,29.2533,-90.6633,14.2,11111222 
LUMCON,ioos:station:LUMCON:101:1,2019-06-01T15:30:00Z,29.2533,-90.6633,14.32,11111222 
LUMCON,ioos:station:LUMCON:101:1,2019-06-01T15:45:00Z,29.2533,-90.6633,13.61,11111222 
LUMCON,ioos:station:LUMCON:101:1,2019-06-01T16:00:00Z,29.2533,-90.6633,12.28,11111222 
LUMCON,ioos:station:LUMCON:101:1,2019-06-01T16:15:00Z,29.2533,-90.6633,12.97,11111222 
LUMCON,ioos:station:LUMCON:101:1,2019-06-01T16:30:00Z,29.2533,-90.6633,13.14,11111222 
LUMCON,ioos:station:LUMCON:101:1,2019-06-01T16:45:00Z,29.2533,-90.6633,14.31,11111222 
LUMCON,ioos:station:LUMCON:101:1,2019-06-01T17:00:00Z,29.2533,-90.6633,15.69,11111222 
LUMCON,ioos:station:LUMCON:101:1,2019-06-01T17:15:00Z,29.2533,-90.6633,15.91,11111222 
LUMCON,ioos:station:LUMCON:101:1,2019-06-01T17:30:00Z,29.2533,-90.6633,16.44,11111222 
LUMCON,ioos:station:LUMCON:101:1,2019-06-01T17:45:00Z,29.2533,-90.6633,15.14,11111222 
LUMCON,ioos:station:LUMCON:101:1,2019-06-01T18:00:00Z,29.2533,-90.6633,15.05,11111222 
LUMCON,ioos:station:LUMCON:101:1,2019-06-01T18:15:00Z,29.2533,-90.6633,15.0,11111222 
LUMCON,ioos:station:LUMCON:101:1,2019-06-01T18:30:00Z,29.2533,-90.6633,17.83,11111222 
LUMCON,ioos:station:LUMCON:101:1,2019-06-01T18:45:00Z,29.2533,-90.6633,17.26,11111222 
LUMCON,ioos:station:LUMCON:101:1,2019-06-01T19:00:00Z,29.2533,-90.6633,17.25,11111222 
LUMCON,ioos:station:LUMCON:101:1,2019-06-01T19:15:00Z,29.2533,-90.6633,17.1,11111222 
LUMCON,ioos:station:LUMCON:101:1,2019-06-01T19:30:00Z,29.2533,-90.6633,16.96,11111222 
LUMCON,ioos:station:LUMCON:101:1,2019-06-01T19:45:00Z,29.2533,-90.6633,16.88,11111222 
LUMCON,ioos:station:LUMCON:101:1,2019-06-01T20:00:00Z,29.2533,-90.6633,17.2,11111222 
LUMCON,ioos:station:LUMCON:101:1,2019-06-01T20:15:00Z,29.2533,-90.6633,17.6,11111222 
LUMCON,ioos:station:LUMCON:101:1,2019-06-01T20:30:00Z,29.2533,-90.6633,17.55,11111222 
LUMCON,ioos:station:LUMCON:101:1,2019-06-01T20:45:00Z,29.2533,-90.6633,17.94,11111222 
LUMCON,ioos:station:LUMCON:101:1,2019-06-01T21:00:00Z,29.2533,-90.6633,17.76,11111222 
LUMCON,ioos:station:LUMCON:101:1,2019-06-01T21:15:00Z,29.2533,-90.6633,17.96,11111222 
LUMCON,ioos:station:LUMCON:101:1,2019-06-01T21:30:00Z,29.2533,-90.6633,17.74,11111222 
LUMCON,ioos:station:LUMCON:101:1,2019-06-01T21:45:00Z,29.2533,-90.6633,17.27,11111222 
LUMCON,ioos:station:LUMCON:101:1,2019-06-01T22:00:00Z,29.2533,-90.6633,16.72,11111222 
LUMCON,ioos:station:LUMCON:101:1,2019-06-01T22:15:00Z,29.2533,-90.6633,16.75,11111222 
LUMCON,ioos:station:LUMCON:101:1,2019-06-01T22:30:00Z,29.2533,-90.6633,16.02,11111222 
LUMCON,ioos:station:LUMCON:101:1,2019-06-01T22:45:00Z,29.2533,-90.6633,15.81,11111222 
LUMCON,ioos:station:LUMCON:101:1,2019-06-01T23:00:00Z,29.2533,-90.6633,15.39,11111222 
LUMCON,ioos:station:LUMCON:101:1,2019-06-01T23:15:00Z,29.2533,-90.6633,15.13,11111222 
LUMCON,ioos:station:LUMCON:101:1,2019-06-01T23:30:00Z,29.2533,-90.6633,14.85,11111222 
LUMCON,ioos:station:LUMCON:101:1,2019-06-01T23:45:00Z,29.2533,-90.6633,14.87,11111222 
LUMCON,ioos:station:LUMCON:101:1,2019-06-02T00:00:00Z,29.2533,-90.6633,14.41,11111222 
LUMCON,ioos:station:LUMCON:101:1,2019-06-02T00:15:00Z,29.2533,-90.6633,14.36,11111222 
LUMCON,ioos:station:LUMCON:101:1,2019-06-02T00:30:00Z,29.2533,-90.6633,14.27,11111222 
LUMCON,ioos:station:LUMCON:101:1,2019-06-02T00:45:00Z,29.2533,-90.6633,14.39,11111222 
LUMCON,ioos:station:LUMCON:101:1,2019-06-02T01:00:00Z,29.2533,-90.6633,14.29,11111222 
LUMCON,ioos:station:LUMCON:101:1,2019-06-02T01:15:00Z,29.2533,-90.6633,14.26,11111222 
LUMCON,ioos:station:LUMCON:101:1,2019-06-02T01:30:00Z,29.2533,-90.6633,14.51,11111222 
LUMCON,ioos:station:LUMCON:101:1,2019-06-02T01:45:00Z,29.2533,-90.6633,14.3,11111222 
LUMCON,ioos:station:LUMCON:101:1,2019-06-02T02:00:00Z,29.2533,-90.6633,14.03,11111222 
LUMCON,ioos:station:LUMCON:101:1,2019-06-02T02:15:00Z,29.2533,-90.6633,14.39,11111222 
LUMCON,ioos:station:LUMCON:101:1,2019-06-02T02:30:00Z,29.2533,-90.6633,14.27,11111222 
LUMCON,ioos:station:LUMCON:101:1,2019-06-02T02:45:00Z,29.2533,-90.6633,13.99,11111222 
LUMCON,ioos:station:LUMCON:101:1,2019-06-02T03:00:00Z,29.2533,-90.6633,13.99,11111222 
LUMCON,ioos:station:LUMCON:101:1,2019-06-02T03:15:00Z,29.2533,-90.6633,13.89,11111222 
LUMCON,ioos:station:LUMCON:101:1,2019-06-02T03:30:00Z,29.2533,-90.6633,14.14,11111222 
LUMCON,ioos:station:LUMCON:101:1,2019-06-02T03:45:00Z,29.2533,-90.6633,14.26,11111222 
LUMCON,ioos:station:LUMCON:101:1,2019-06-02T04:00:00Z,29.2533,-90.6633,14.64,11111222 
LUMCON,ioos:station:LUMCON:101:1,2019-06-02T04:15:00Z,29.2533,-90.6633,15.06,11111222 
LUMCON,ioos:station:LUMCON:101:1,2019-06-02T04:30:00Z,29.2533,-90.6633,14.5,11111222 
LUMCON,ioos:station:LUMCON:101:1,2019-06-02T04:45:00Z,29.2533,-90.6633,16.39,11111222 
LUMCON,ioos:station:LUMCON:101:1,2019-06-02T05:00:00Z,29.2533,-90.6633,17.27,11111222 
LUMCON,ioos:station:LUMCON:101:1,2019-06-02T05:15:00Z,29.2533,-90.6633,17.21,11111222 
LUMCON,ioos:station:LUMCON:101:1,2019-06-02T05:30:00Z,29.2533,-90.6633,16.72,11111222 
LUMCON,ioos:station:LUMCON:101:1,2019-06-02T05:45:00Z,29.2533,-90.6633,16.86,11111222 
LUMCON,ioos:station:LUMCON:101:1,2019-06-02T06:00:00Z,29.2533,-90.6633,17.58,11111222 
LUMCON,ioos:station:LUMCON:101:1,2019-06-02T06:15:00Z,29.2533,-90.6633,17.8,11111222 
LUMCON,ioos:station:LUMCON:101:1,2019-06-02T06:30:00Z,29.2533,-90.6633,17.68,11111222 
LUMCON,ioos:station:LUMCON:101:1,2019-06-02T06:45:00Z,29.2533,-90.6633,17.2,11111222 
LUMCON,ioos:station:LUMCON:101:1,2019-06-02T07:00:00Z,29.2533,-90.6633,17.67,11111222 
LUMCON,ioos:station:LUMCON:101:1,2019-06-02T07:15:00Z,29.2533,-90.6633,18.35,11111222 
LUMCON,ioos:station:LUMCON:101:1,2019-06-02T07:30:00Z,29.2533,-90.6633,17.64,11111222 
LUMCON,ioos:station:LUMCON:101:1,2019-06-02T07:45:00Z,29.2533,-90.6633,17.8,11111222 
LUMCON,ioos:station:LUMCON:101:1,2019-06-02T08:00:00Z,29.2533,-90.6633,18.12,11111222 
LUMCON,ioos:station:LUMCON:101:1,2019-06-02T08:15:00Z,29.2533,-90.6633,17.41,11111222 
LUMCON,ioos:station:LUMCON:101:1,2019-06-02T08:30:00Z,29.2533,-90.6633,17.35,11111222 
LUMCON,ioos:station:LUMCON:101:1,2019-06-02T08:45:00Z,29.2533,-90.6633,16.24,11111222 
LUMCON,ioos:station:LUMCON:101:1,2019-06-02T09:00:00Z,29.2533,-90.6633,16.23,11111222 
LUMCON,ioos:station:LUMCON:101:1,2019-06-02T09:15:00Z,29.2533,-90.6633,16.25,11111222 
LUMCON,ioos:station:LUMCON:101:1,2019-06-02T09:30:00Z,29.2533,-90.6633,16.31,11111222 
LUMCON,ioos:station:LUMCON:101:1,2019-06-02T09:45:00Z,29.2533,-90.6633,16.53,11111222 
LUMCON,ioos:station:LUMCON:101:1,2019-06-02T10:00:00Z,29.2533,-90.6633,15.67,11111222 
LUMCON,ioos:station:LUMCON:101:1,2019-06-02T10:15:00Z,29.2533,-90.6633,15.6,11111222 
LUMCON,ioos:station:LUMCON:101:1,2019-06-02T10:30:00Z,29.2533,-90.6633,15.46,11111222 
LUMCON,ioos:station:LUMCON:101:1,2019-06-02T10:45:00Z,29.2533,-90.6633,15.81,11111222 
LUMCON,ioos:station:LUMCON:101:1,2019-06-02T11:00:00Z,29.2533,-90.6633,15.06,11111222 
LUMCON,ioos:station:LUMCON:101:1,2019-06-02T11:15:00Z,29.2533,-90.6633,16.61,11111222 
LUMCON,ioos:station:LUMCON:101:1,2019-06-02T11:30:00Z,29.2533,-90.6633,15.75,11111222 
LUMCON,ioos:station:LUMCON:101:1,2019-06-02T11:45:00Z,29.2533,-90.6633,15.98,11111222 
LUMCON,ioos:station:LUMCON:101:1,2019-06-02T12:00:00Z,29.2533,-90.6633,14.94,11111222 
LUMCON,ioos:station:LUMCON:101:1,2019-06-02T12:15:00Z,29.2533,-90.6633,15.14,11111222 
LUMCON,ioos:station:LUMCON:101:1,2019-06-02T12:30:00Z,29.2533,-90.6633,16.23,11111222 
LUMCON,ioos:station:LUMCON:101:1,2019-06-02T12:45:00Z,29.2533,-90.6633,13.87,11111222 
LUMCON,ioos:station:LUMCON:101:1,2019-06-02T13:00:00Z,29.2533,-90.6633,13.82,11111222 
LUMCON,ioos:station:LUMCON:101:1,2019-06-02T13:15:00Z,29.2533,-90.6633,15.21,11111222 
LUMCON,ioos:station:LUMCON:101:1,2019-06-02T13:30:00Z,29.2533,-90.6633,15.78,11111222 
LUMCON,ioos:station:LUMCON:101:1,2019-06-02T13:45:00Z,29.2533,-90.6633,14.32,11111222 
LUMCON,ioos:station:LUMCON:101:1,2019-06-02T14:00:00Z,29.2533,-90.6633,14.99,11111222 
LUMCON,ioos:station:LUMCON:101:1,2019-06-02T14:15:00Z,29.2533,-90.6633,15.56,11111222 
LUMCON,ioos:station:LUMCON:101:1,2019-06-02T14:30:00Z,29.2533,-90.6633,15.19,11111222 
LUMCON,ioos:station:LUMCON:101:1,2019-06-02T14:45:00Z,29.2533,-90.6633,14.92,11111222 
LUMCON,ioos:station:LUMCON:101:1,2019-06-02T15:00:00Z,29.2533,-90.6633,14.13,11111222 
LUMCON,ioos:station:LUMCON:101:1,2019-06-02T15:15:00Z,29.2533,-90.6633,14.63,11111222 
LUMCON,ioos:station:LUMCON:101:1,2019-06-02T15:30:00Z,29.2533,-90.6633,13.55,11111222 
LUMCON,ioos:station:LUMCON:101:1,2019-06-02T15:45:00Z,29.2533,-90.6633,14.31,11111222 
LUMCON,ioos:station:LUMCON:101:1,2019-06-02T16:00:00Z,29.2533,-90.6633,14.04,11111222 
LUMCON,ioos:station:LUMCON:101:1,2019-06-02T16:15:00Z,29.2533,-90.6633,13.39,11111222 
LUMCON,ioos:station:LUMCON:101:1,2019-06-02T16:30:00Z,29.2533,-90.6633,13.1,11111222 
LUMCON,ioos:station:LUMCON:101:1,2019-06-02T16:45:00Z,29.2533,-90.6633,12.65,11111222 
LUMCON,ioos:station:LUMCON:101:1,2019-06-02T17:00:00Z,29.2533,-90.6633,12.78,11111222 
LUMCON,ioos:station:LUMCON:101:1,2019-06-02T17:15:00Z,29.2533,-90.6633,15.35,11111222 
LUMCON,ioos:station:LUMCON:101:1,2019-06-02T17:30:00Z,29.2533,-90.6633,16.1,11111222 
LUMCON,ioos:station:LUMCON:101:1,2019-06-02T17:45:00Z,29.2533,-90.6633,16.68,11111222 
LUMCON,ioos:station:LUMCON:101:1,2019-06-02T18:00:00Z,29.2533,-90.6633,16.28,11111222 
LUMCON,ioos:station:LUMCON:101:1,2019-06-02T18:15:00Z,29.2533,-90.6633,17.09,11111222 
LUMCON,ioos:station:LUMCON:101:1,2019-06-02T18:30:00Z,29.2533,-90.6633,17.36,11111222 
LUMCON,ioos:station:LUMCON:101:1,2019-06-02T18:45:00Z,29.2533,-90.6633,17.57,11111222 
LUMCON,ioos:station:LUMCON:101:1,2019-06-02T19:00:00Z,29.2533,-90.6633,17.91,11111222 
LUMCON,ioos:station:LUMCON:101:1,2019-06-02T19:15:00Z,29.2533,-90.6633,18.65,11111222 
LUMCON,ioos:station:LUMCON:101:1,2019-06-02T19:30:00Z,29.2533,-90.6633,18.14,11111222 
LUMCON,ioos:station:LUMCON:101:1,2019-06-02T19:45:00Z,29.2533,-90.6633,18.75,11111222 
LUMCON,ioos:station:LUMCON:101:1,2019-06-02T20:00:00Z,29.2533,-90.6633,18.88,11111222 
LUMCON,ioos:station:LUMCON:101:1,2019-06-02T20:15:00Z,29.2533,-90.6633,18.67,11111222 
LUMCON,ioos:station:LUMCON:101:1,2019-06-02T20:30:00Z,29.2533,-90.6633,18.89,11111222 
LUMCON,ioos:station:LUMCON:101:1,2019-06-02T20:45:00Z,29.2533,-90.6633,18.75,11111222 
LUMCON,ioos:station:LUMCON:101:1,2019-06-02T21:00:00Z,29.2533,-90.6633,18.9,11111222 
LUMCON,ioos:station:LUMCON:101:1,2019-06-02T21:15:00Z,29.2533,-90.6633,18.94,11111222 
LUMCON,ioos:station:LUMCON:101:1,2019-06-02T21:30:00Z,29.2533,-90.6633,18.76,11111222 
LUMCON,ioos:station:LUMCON:101:1,2019-06-02T21:45:00Z,29.2533,-90.6633,18.37,11111222 
LUMCON,ioos:station:LUMCON:101:1,2019-06-02T22:00:00Z,29.2533,-90.6633,18.09,11111222 
LUMCON,ioos:station:LUMCON:101:1,2019-06-02T22:15:00Z,29.2533,-90.6633,17.91,11111222 
LUMCON,ioos:station:LUMCON:101:1,2019-06-02T22:30:00Z,29.2533,-90.6633,16.77,11111222 
LUMCON,ioos:station:LUMCON:101:1,2019-06-02T22:45:00Z,29.2533,-90.6633,16.9,11111222 
LUMCON,ioos:station:LUMCON:101:1,2019-06-02T23:00:00Z,29.2533,-90.6633,16.57,11111222 
LUMCON,ioos:station:LUMCON:101:1,2019-06-02T23:15:00Z,29.2533,-90.6633,16.43,11111222 
LUMCON,ioos:station:LUMCON:101:1,2019-06-02T23:30:00Z,29.2533,-90.6633,16.2,11111222 
LUMCON,ioos:station:LUMCON:101:1,2019-06-02T23:45:00Z,29.2533,-90.6633,16.18,11111222 
LUMCON,ioos:station:LUMCON:101:1,2019-06-03T00:00:00Z,29.2533,-90.6633,16.42,11111222 
LUMCON,ioos:station:LUMCON:101:1,2019-06-03T00:15:00Z,29.2533,-90.6633,16.16,11111222 
LUMCON,ioos:station:LUMCON:101:1,2019-06-03T00:30:00Z,29.2533,-90.6633,16.23,11111222 
LUMCON,ioos:station:LUMCON:101:1,2019-06-03T00:45:00Z,29.2533,-90.6633,16.24,11111222 
LUMCON,ioos:station:LUMCON:101:1,2019-06-03T01:00:00Z,29.2533,-90.6633,15.63,11111222 
LUMCON,ioos:station:LUMCON:101:1,2019-06-03T01:15:00Z,29.2533,-90.6633,15.75,11111222 
LUMCON,ioos:station:LUMCON:101:1,2019-06-03T01:30:00Z,29.2533,-90.6633,15.69,11111222 
LUMCON,ioos:station:LUMCON:101:1,2019-06-03T01:45:00Z,29.2533,-90.6633,16.1,11111222 
LUMCON,ioos:station:LUMCON:101:1,2019-06-03T02:00:00Z,29.2533,-90.6633,15.85,11111222 
LUMCON,ioos:station:LUMCON:101:1,2019-06-03T02:15:00Z,29.2533,-90.6633,15.97,11111222 
LUMCON,ioos:station:LUMCON:101:1,2019-06-03T02:30:00Z,29.2533,-90.6633,15.89,11111222 
LUMCON,ioos:station:LUMCON:101:1,2019-06-03T02:45:00Z,29.2533,-90.6633,15.6,11111222 
LUMCON,ioos:station:LUMCON:101:1,2019-06-03T03:00:00Z,29.2533,-90.6633,15.17,11111222 
LUMCON,ioos:station:LUMCON:101:1,2019-06-03T03:15:00Z,29.2533,-90.6633,15.22,11111222 
LUMCON,ioos:station:LUMCON:101:1,2019-06-03T03:30:00Z,29.2533,-90.6633,15.28,11111222 
LUMCON,ioos:station:LUMCON:101:1,2019-06-03T03:45:00Z,29.2533,-90.6633,15.01,11111222 
LUMCON,ioos:station:LUMCON:101:1,2019-06-03T04:00:00Z,29.2533,-90.6633,15.08,11111222 
LUMCON,ioos:station:LUMCON:101:1,2019-06-03T04:15:00Z,29.2533,-90.6633,15.02,11111222 
LUMCON,ioos:station:LUMCON:101:1,2019-06-03T04:30:00Z,29.2533,-90.6633,15.46,11111222 
LUMCON,ioos:station:LUMCON:101:1,2019-06-03T04:45:00Z,29.2533,-90.6633,15.49,11111222 
LUMCON,ioos:station:LUMCON:101:1,2019-06-03T05:00:00Z,29.2533,-90.6633,16.2,11111222 
LUMCON,ioos:station:LUMCON:101:1,2019-06-03T05:15:00Z,29.2533,-90.6633,16.76,11111222 
LUMCON,ioos:station:LUMCON:101:1,2019-06-03T05:30:00Z,29.2533,-90.6633,17.17,11111222 
LUMCON,ioos:station:LUMCON:101:1,2019-06-03T05:45:00Z,29.2533,-90.6633,16.83,11111222 
LUMCON,ioos:station:LUMCON:101:1,2019-06-03T06:00:00Z,29.2533,-90.6633,17.47,11111222 
LUMCON,ioos:station:LUMCON:101:1,2019-06-03T06:15:00Z,29.2533,-90.6633,17.39,11111222 
LUMCON,ioos:station:LUMCON:101:1,2019-06-03T06:30:00Z,29.2533,-90.6633,17.07,11111222 
LUMCON,ioos:station:LUMCON:101:1,2019-06-03T06:45:00Z,29.2533,-90.6633,17.31,11111222 
LUMCON,ioos:station:LUMCON:101:1,2019-06-03T07:00:00Z,29.2533,-90.6633,17.38,11111222 
LUMCON,ioos:station:LUMCON:101:1,2019-06-03T07:15:00Z,29.2533,-90.6633,17.23,11111222 
LUMCON,ioos:station:LUMCON:101:1,2019-06-03T07:30:00Z,29.2533,-90.6633,17.13,11111222 
LUMCON,ioos:station:LUMCON:101:1,2019-06-03T07:45:00Z,29.2533,-90.6633,17.0,11111222 
LUMCON,ioos:station:LUMCON:101:1,2019-06-03T08:00:00Z,29.2533,-90.6633,17.15,11111222 
LUMCON,ioos:station:LUMCON:101:1,2019-06-03T08:15:00Z,29.2533,-90.6633,16.81,11111222 
LUMCON,ioos:station:LUMCON:101:1,2019-06-03T08:30:00Z,29.2533,-90.6633,17.4,11111222 
LUMCON,ioos:station:LUMCON:101:1,2019-06-03T08:45:00Z,29.2533,-90.6633,17.21,11111222 
LUMCON,ioos:station:LUMCON:101:1,2019-06-03T09:00:00Z,29.2533,-90.6633,16.81,11111222 
LUMCON,ioos:station:LUMCON:101:1,2019-06-03T09:15:00Z,29.2533,-90.6633,16.87,11111222 
LUMCON,ioos:station:LUMCON:101:1,2019-06-03T09:30:00Z,29.2533,-90.6633,17.03,11111222 
LUMCON,ioos:station:LUMCON:101:1,2019-06-03T09:45:00Z,29.2533,-90.6633,16.5,11111222 
LUMCON,ioos:station:LUMCON:101:1,2019-06-03T10:00:00Z,29.2533,-90.6633,16.36,11111222 
LUMCON,ioos:station:LUMCON:101:1,2019-06-03T10:15:00Z,29.2533,-90.6633,16.43,11111222 
LUMCON,ioos:station:LUMCON:101:1,2019-06-03T10:30:00Z,29.2533,-90.6633,16.88,11111222 
LUMCON,ioos:station:LUMCON:101:1,2019-06-03T10:45:00Z,29.2533,-90.6633,16.7,11111222 
LUMCON,ioos:station:LUMCON:101:1,2019-06-03T11:00:00Z,29.2533,-90.6633,17.03,11111222 
LUMCON,ioos:station:LUMCON:101:1,2019-06-03T11:15:00Z,29.2533,-90.6633,16.27,11111222 
LUMCON,ioos:station:LUMCON:101:1,2019-06-03T11:30:00Z,29.2533,-90.6633,16.28,11111222 
LUMCON,ioos:station:LUMCON:101:1,2019-06-03T11:45:00Z,29.2533,-90.6633,15.37,11111222 
LUMCON,ioos:station:LUMCON:101:1,2019-06-03T12:00:00Z,29.2533,-90.6633,16.65,11111222 
LUMCON,ioos:station:LUMCON:101:1,2019-06-03T12:15:00Z,29.2533,-90.6633,15.99,11111222 
LUMCON,ioos:station:LUMCON:101:1,2019-06-03T12:30:00Z,29.2533,-90.6633,16.6,11111222 
LUMCON,ioos:station:LUMCON:101:1,2019-06-03T12:45:00Z,29.2533,-90.6633,16.31,11111222 
LUMCON,ioos:station:LUMCON:101:1,2019-06-03T13:00:00Z,29.2533,-90.6633,17.05,11111222 
LUMCON,ioos:station:LUMCON:101:1,2019-06-03T13:15:00Z,29.2533,-90.6633,15.87,11111222 
LUMCON,ioos:station:LUMCON:101:1,2019-06-03T13:30:00Z,29.2533,-90.6633,15.11,11111222 
LUMCON,ioos:station:LUMCON:101:1,2019-06-03T13:45:00Z,29.2533,-90.6633,15.43,11111222 
LUMCON,ioos:station:LUMCON:101:1,2019-06-03T14:00:00Z,29.2533,-90.6633,16.03,11111222 
LUMCON,ioos:station:LUMCON:101:1,2019-06-03T14:15:00Z,29.2533,-90.6633,15.89,11111222 
LUMCON,ioos:station:LUMCON:101:1,2019-06-03T14:30:00Z,29.2533,-90.6633,16.58,11111222 
LUMCON,ioos:station:LUMCON:101:1,2019-06-03T14:45:00Z,29.2533,-90.6633,15.16,11111222 
LUMCON,ioos:station:LUMCON:101:1,2019-06-03T15:00:00Z,29.2533,-90.6633,17.04,11111222 
LUMCON,ioos:station:LUMCON:101:1,2019-06-03T15:15:00Z,29.2533,-90.6633,17.34,11111222 
LUMCON,ioos:station:LUMCON:101:1,2019-06-03T15:30:00Z,29.2533,-90.6633,16.58,11111222 
LUMCON,ioos:station:LUMCON:101:1,2019-06-03T15:45:00Z,29.2533,-90.6633,14.57,11111222 
LUMCON,ioos:station:LUMCON:101:1,2019-06-03T16:00:00Z,29.2533,-90.6633,15.87,11111222 
LUMCON,ioos:station:LUMCON:101:1,2019-06-03T16:15:00Z,29.2533,-90.6633,15.51,11111222 
LUMCON,ioos:station:LUMCON:101:1,2019-06-03T16:30:00Z,29.2533,-90.6633,15.22,11111222 
LUMCON,ioos:station:LUMCON:101:1,2019-06-03T16:45:00Z,29.2533,-90.6633,14.27,11111222 
LUMCON,ioos:station:LUMCON:101:1,2019-06-03T17:00:00Z,29.2533,-90.6633,16.16,11111222 
LUMCON,ioos:station:LUMCON:101:1,2019-06-03T17:15:00Z,29.2533,-90.6633,14.21,11111222 
LUMCON,ioos:station:LUMCON:101:1,2019-06-03T17:30:00Z,29.2533,-90.6633,14.5,11111222 
LUMCON,ioos:station:LUMCON:101:1,2019-06-03T17:45:00Z,29.2533,-90.6633,14.43,11111222 
LUMCON,ioos:station:LUMCON:101:1,2019-06-03T18:00:00Z,29.2533,-90.6633,15.1,11111222 
LUMCON,ioos:station:LUMCON:101:1,2019-06-03T18:15:00Z,29.2533,-90.6633,16.58,11111222 
LUMCON,ioos:station:LUMCON:101:1,2019-06-03T18:30:00Z,29.2533,-90.6633,14.72,11111222 
LUMCON,ioos:station:LUMCON:101:1,2019-06-03T18:45:00Z,29.2533,-90.6633,14.83,11111222 
LUMCON,ioos:station:LUMCON:101:1,2019-06-03T19:00:00Z,29.2533,-90.6633,16.87,11111222 
LUMCON,ioos:station:LUMCON:101:1,2019-06-03T19:15:00Z,29.2533,-90.6633,17.68,11111222 
LUMCON,ioos:station:LUMCON:101:1,2019-06-03T19:30:00Z,29.2533,-90.6633,17.9,11111222 
LUMCON,ioos:station:LUMCON:101:1,2019-06-03T19:45:00Z,29.2533,-90.6633,18.08,11111222 
LUMCON,ioos:station:LUMCON:101:1,2019-06-03T20:00:00Z,29.2533,-90.6633,18.45,11111222 
LUMCON,ioos:station:LUMCON:101:1,2019-06-03T20:15:00Z,29.2533,-90.6633,18.79,11111222 
LUMCON,ioos:station:LUMCON:101:1,2019-06-03T20:30:00Z,29.2533,-90.6633,18.93,11111222 